Theta_e
284 285 284 284 285 286 285 285 286 286 286 286 286 286 286 286 287 287 287 287 287 287 287 287 287 287 288 287 288 288 289 291 290 290 290 290 291 291 291 292 292 293
283 285 286 284 284 284 284 284 284 285 285 285 286 286 286 286 287 287 286 286 286 286 287 286 286 286 286 286 287 286 287 287 286 288 287 287 288 289 290 291 291 293
282 282 282 282 282 282 283 284 284 284 284 285 285 286 286 287 286 286 286 286 286 286 286 286 286 286 286 286 286 286 286 286 285 286 286 286 286 286 286 287 288 290
281 281 282 282 282 282 282 282 282 283 284 284 284 285 286 286 285 285 285 286 285 285 285 285 285 285 285 285 285 285 285 285 286 286 285 285 286 286 286 286 286 286
280 280 281 281 282 282 282 281 281 282 282 283 283 285 285 284 284 284 284 284 284 284 284 284 284 284 285 285 285 284 285 285 285 285 284 284 285 285 286 285 285 285
280 280 281 281 281 281 281 281 281 282 281 281 282 284 283 284 283 283 283 283 283 284 284 284 284 284 284 284 284 284 284 284 284 284 284 283 284 285 285 285 284 284
279 279 280 280 280 280 281 280 281 282 281 282 282 281 282 282 282 282 282 283 282 283 283 283 283 283 284 283 283 283 283 284 284 283 283 283 284 283 284 284 284 283
278 278 278 279 279 279 280 280 280 280 280 281 280 280 281 281 281 281 282 282 281 282 282 282 282 282 283 283 282 282 282 284 284 283 282 282 283 282 283 284 283 283
278 278 278 278 278 278 279 279 279 279 280 280 280 280 280 281 281 281 281 281 280 281 281 281 281 281 282 282 282 282 282 282 283 282 282 282 282 282 282 283 282 282
277 277 277 277 277 278 278 278 278 279 280 279 279 280 280 280 280 280 280 280 280 280 280 280 280 281 281 281 281 281 281 281 281 281 282 282 282 282 282 282 282 281
276 276 276 276 277 277 277 277 277 278 278 279 279 279 279 279 280 280 279 279 280 279 279 279 280 280 280 280 281 281 281 281 281 281 281 281 282 282 283 282 281 281
276 276 276 276 276 276 277 277 277 277 277 278 278 278 278 279 279 279 280 279 278 279 279 279 279 279 279 279 280 280 280 280 280 280 281 281 281 282 282 282 281 281
276 276 276 276 277 277 277 277 277 277 277 277 277 277 277 278 278 278 279 278 279 279 279 279 279 279 279 279 279 279 279 280 280 280 280 280 281 281 281 281 281 281
277 277 277 277 277 276 277 277 277 277 277 277 277 277 277 277 278 278 278 278 279 278 279 279 279 278 279 279 279 279 280 280 280 280 280 280 280 280 280 281 281 281
278 277 277 277 277 277 277 277 277 277 277 277 276 277 278 278 278 278 277 277 277 278 278 278 279 279 279 279 279 280 280 280 280 280 280 279 279 279 279 280 280 280
278 277 277 277 277 277 277 277 277 277 277 277 277 277 277 277 277 277 277 277 277 277 277 278 279 279 282 283 284 282 281 281 281 280 279 279 279 278 278 279 279 279
277 277 277 277 277 277 277 277 277 277 277 277 277 277 277 277 277 277 277 277 277 277 277 278 279 280 282 284 284 285 283 281 280 280 280 279 279 278 278 278 278 279
278 277 277 277 277 277 277 277 277 277 277 277 277 277 277 277 277 277 277 277 278 278 278 278 279 282 283 284 284 284 284 282 280 280 280 279 279 278 278 278 277 278
278 277 277 277 277 277 277 277 277 277 277 277 277 277 277 277 277 277 277 278 278 277 278 278 278 281 283 283 283 284 284 283 280 280 279 279 278 278 278 277 277 277
278 277 277 278 278 277 277 277 277 277 277 277 277 277 277 277 277 277 277 277 277 277 278 278 278 280 282 283 283 283 283 283 280 279 279 278 278 278 277 277 277 277
278 278 277 278 277 277 277 277 277 277 276 277 277 276 276 276 277 277 277 277 277 277 277 277 278 281 282 282 282 282 283 282 279 279 278 277 277 277 277 277 277 277
278 278 278 277 277 277 277 277 277 276 276 277 276 276 276 276 276 276 276 277 277 276 276 276 276 280 281 281 281 282 282 279 278 277 277 276 276 276 276 276 277 276
278 278 277 277 277 277 276 276 276 276 276 276 276 276 276 276 276 277 276 276 276 276 275 275 275 278 280 280 280 281 280 277 277 276 276 276 275 276 276 276 276 276
278 277 277 277 277 276 276 276 276 276 276 276 276 276 276 276 276 275 275 275 275 275 275 274 274 276 279 279 280 280 279 276 276 275 275 275 275 275 276 276 276 278
277 277 277 277 276 276 276 276 275 276 276 275 275 275 275 275 275 274 274 274 274 274 275 274 274 275 278 278 279 279 279 276 275 274 274 274 274 274 275 275 275 276
277 277 276 276 276 275 275 275 275 274 274 274 274 274 274 274 273 273 273 273 274 273 273 273 273 273 274 278 278 279 279 276 275 274 273 273 273 273 273 274 275 275
Wind_Speed
7 6 6 6 7 6 7 7 7 8 7 7 7 8 7 7 8 9 9 9 10 9 10 10 10 10 9 10 9 8 8 9 8 9 9 9 8 10 11 13 13 11
6 6 5 5 5 5 5 5 6 6 6 6 6 6 6 6 7 8 8 9 9 9 9 10 10 10 10 9 9 9 9 9 11 8 10 12 9 10 10 11 10 10
5 5 6 6 6 5 5 5 4 4 5 5 4 5 5 5 6 7 7 8 7 8 8 8 8 9 9 9 9 8 9 10 10 10 10 10 10 11 10 10 10 11
3 3 4 4 4 4 4 4 4 4 4 4 4 4 4 4 4 6 6 7 7 7 7 8 8 8 9 9 9 8 8 8 8 9 9 8 9 10 10 9 10 10
1 2 2 2 2 2 3 3 3 4 4 4 4 4 4 4 5 5 5 6 6 7 7 7 8 8 8 8 8 8 8 7 8 9 9 9 8 9 8 9 11 11
2 1 1 1 2 2 3 2 2 2 3 3 3 3 3 4 3 3 4 4 5 5 6 6 8 7 8 8 8 8 8 7 8 9 9 10 9 9 7 9 10 11
2 2 2 2 2 2 1 2 2 1 2 2 2 3 3 3 3 4 4 4 4 5 5 6 6 7 7 7 7 8 7 7 8 8 9 8 8 10 9 9 9 11
2 2 2 2 2 2 2 2 2 2 2 2 2 3 2 3 3 3 3 4 4 4 5 5 5 6 6 6 7 8 8 6 7 9 10 10 9 10 10 9 10 10
3 3 2 3 3 3 3 3 3 3 3 2 3 3 2 2 3 3 3 3 4 4 4 5 5 6 6 6 7 7 8 8 7 8 9 10 11 11 11 10 11 11
3 3 3 3 3 3 4 4 3 3 3 3 3 2 3 3 2 3 3 3 3 4 4 4 5 4 5 5 6 7 7 8 8 8 8 8 9 10 11 11 11 12
4 4 4 4 4 4 4 4 4 4 3 3 3 4 3 3 4 2 3 3 4 4 4 4 4 4 5 5 5 6 6 7 8 8 9 9 9 9 9 10 12 12
5 4 5 5 4 4 5 4 4 4 4 4 3 4 4 4 4 4 4 4 4 4 4 4 4 4 5 6 6 6 6 6 7 8 8 9 10 10 10 10 11 12
5 5 5 4 4 5 4 4 4 4 4 5 4 4 4 5 4 4 5 4 5 4 5 5 5 5 6 6 7 6 7 8 9 9 9 8 9 10 9 10 10 10
6 5 5 5 5 4 4 5 5 5 5 5 4 4 5 5 6 5 5 4 5 5 5 4 5 5 6 6 7 8 9 9 9 10 10 10 10 9 10 10 10 11
6 5 4 4 4 4 4 6 6 5 5 4 4 5 5 5 5 5 5 6 5 5 5 5 5 6 5 6 7 9 8 10 11 10 11 11 10 10 10 10 11 11
6 5 5 4 4 6 6 5 5 6 5 5 5 5 5 5 5 5 5 6 6 6 5 5 5 5 7 14 14 10 10 9 10 11 10 10 11 11 11 11 10 11
6 7 5 6 6 5 5 6 7 6 5 6 6 6 6 6 5 6 6 6 6 6 7 6 6 6 12 15 17 19 13 11 12 12 11 11 11 11 12 11 11 10
7 6 6 7 6 7 7 6 5 5 6 6 6 7 7 5 6 7 6 7 7 6 7 7 7 9 16 17 19 21 19 14 12 12 12 11 11 12 11 11 11 11
7 7 7 7 8 8 6 5 6 6 7 7 8 7 4 5 7 7 7 7 7 8 9 8 8 10 16 19 21 22 23 20 12 13 13 13 13 13 12 11 11 10
7 7 8 9 8 7 6 6 6 8 7 6 6 5 6 7 6 8 8 7 8 8 9 9 9 10 17 20 22 23 23 21 13 14 13 13 13 13 13 13 12 13
8 8 9 9 8 7 6 7 7 7 6 6 6 6 6 7 7 7 7 7 8 8 9 10 9 14 18 22 22 24 25 22 13 12 11 12 12 12 13 14 14 12
8 8 9 8 7 7 6 8 7 6 7 6 5 5 5 5 6 6 7 8 8 8 10 12 11 16 20 21 23 24 26 15 11 11 12 12 13 12 11 11 12 13
9 9 8 7 7 6 7 7 6 6 6 3 5 5 6 6 7 7 6 8 10 10 11 12 12 13 18 22 24 26 21 11 11 11 11 12 13 12 13 11 12 12
8 7 7 7 6 8 8 6 4 4 4 3 5 6 7 7 7 8 8 8 10 11 11 12 13 14 21 23 24 25 22 14 11 11 11 12 12 12 11 12 14 26
6 6 7 7 7 7 5 5 4 5 4 3 4 5 7 7 7 8 10 9 9 10 13 14 14 15 20 23 25 24 20 12 11 10 11 12 12 13 11 12 13 16
6 6 7 6 6 4 3 4 3 3 3 4 5 5 7 7 8 8 11 11 10 9 10 11 13 14 14 24 24 25 26 17 11 10 12 12 12 11 13 12 13 15
Wind_Direction
28 27 33 32 35 32 30 30 29 33 33 30 33 27 26 20 15 20 19 19 21 22 20 20 19 19 17 17 17 16 22 23 20 16 14 15 14 10 6 5 5 4
20 27 27 27 30 27 28 28 24 28 27 27 26 24 19 18 14 16 17 16 19 21 18 19 18 16 16 16 12 15 16 18 19 12 7 9 10 6 5 3 0 356
17 21 25 28 25 18 17 14 24 24 27 16 16 20 14 13 8 13 14 15 14 16 16 16 16 16 15 14 11 14 14 13 17 9 8 7 2 5 359 357 358 359
10 16 18 13 14 14 7 15 9 15 14 20 14 8 12 1 6 8 10 11 12 11 12 12 12 11 12 10 11 15 11 13 12 5 5 4 4 360 356 357 353 353
352 358 3 5 355 358 1 18 9 3 9 357 354 356 4 358 6 4 7 8 9 7 7 9 8 9 7 6 6 8 6 4 5 5 3 360 359 358 354 351 349 349
336 330 332 345 345 354 3 5 344 351 341 358 345 339 345 347 354 354 357 2 1 3 3 3 5 3 3 3 0 5 360 358 357 359 358 356 351 352 351 349 346 345
299 303 301 306 321 323 339 329 325 332 319 315 335 338 340 341 345 343 348 350 351 354 359 357 0 357 358 357 356 354 354 350 348 351 351 349 345 343 345 344 343 340
279 272 267 284 293 298 306 298 301 293 288 317 325 301 335 324 333 336 344 344 347 347 350 351 350 351 347 350 348 345 344 347 342 345 343 341 343 339 339 338 336 333
275 279 290 298 301 292 287 291 289 296 295 299 294 298 302 305 308 321 330 341 344 345 345 345 344 340 338 339 337 336 333 332 335 335 335 334 336 334 333 331 330 330
266 269 286 282 285 273 279 275 279 283 290 294 293 293 310 308 303 304 319 328 331 331 333 330 331 325 325 325 322 325 322 322 324 326 323 322 322 323 325 326 324 323
255 257 252 260 258 263 260 265 264 269 271 265 282 299 291 302 310 300 295 307 309 303 303 305 303 306 309 308 308 307 307 308 313 315 316 312 312 311 313 316 316 315
239 231 231 236 244 249 250 251 257 261 269 274 240 261 280 281 278 286 281 284 286 291 290 291 292 296 292 297 301 302 300 301 301 305 305 307 305 305 306 306 306 306
229 227 225 237 239 246 251 255 255 256 256 263 265 254 266 275 276 272 275 273 277 282 289 293 302 301 301 301 301 300 304 305 306 303 301 299 300 299 297 296 294 294
240 238 236 240 245 250 258 262 263 261 254 256 261 267 265 267 270 272 274 271 271 272 272 284 285 290 293 294 294 300 304 305 304 305 303 301 299 294 293 294 292 291
243 243 236 243 251 255 263 262 261 262 264 265 262 261 263 261 266 270 281 278 270 266 272 269 270 271 272 278 290 294 296 299 302 301 300 299 296 294 293 291 292 293
243 247 248 246 253 256 256 262 266 269 269 270 267 263 266 268 268 268 264 272 279 278 270 265 263 266 265 272 281 287 291 292 292 292 290 290 292 293 289 287 285 289
246 247 245 249 247 252 256 257 262 264 270 270 271 273 273 274 278 280 276 274 276 279 282 276 274 272 276 285 291 296 296 292 290 289 287 284 283 284 289 291 290 284
242 245 246 250 253 252 252 255 259 265 266 266 271 276 274 281 282 274 278 279 278 276 273 277 280 276 284 289 292 294 295 294 293 292 292 288 287 287 288 290 291 290
243 240 243 249 248 248 251 256 258 263 264 265 265 264 279 275 269 279 276 275 275 277 278 278 279 281 286 290 291 293 294 294 289 289 290 291 290 289 289 290 291 289
246 241 243 246 248 249 247 251 254 253 257 261 269 279 273 274 274 271 273 272 269 272 278 280 281 280 285 287 290 292 293 293 288 287 287 287 289 289 290 289 288 289
246 243 246 249 249 249 250 252 252 257 258 259 258 261 268 269 275 277 275 274 275 278 280 281 280 280 286 289 291 293 293 294 289 286 285 284 282 282 282 284 284 281
243 245 246 248 250 250 252 256 255 254 261 262 264 267 260 265 268 260 270 274 274 277 282 283 283 284 288 291 293 294 295 293 288 284 284 281 282 278 275 274 276 276
239 239 244 248 247 252 252 253 256 261 260 257 275 269 273 275 274 277 277 282 285 282 281 282 285 287 290 293 294 295 297 290 286 283 279 281 277 279 279 276 274 271
237 231 237 241 242 244 248 251 250 255 259 263 265 280 283 278 285 286 281 278 279 282 281 286 289 291 293 293 294 295 296 294 289 284 280 277 277 275 276 276 274 280
228 224 228 235 237 241 238 246 248 253 266 277 269 275 278 284 284 283 282 279 274 278 286 287 288 290 292 293 295 296 297 291 287 280 281 281 281 282 275 277 277 276
218 220 226 226 230 229 220 231 241 261 268 268 274 270 278 282 280 278 280 280 280 280 282 282 287 288 289 294 296 297 297 295 291 288 285 283 283 282 284 276 271 273